Terug naar catalogus

COSMOS 763

ActiefMilitairLEO
NORAD 8287·PAYLOAD·🇷🇺 Russia

Gelanceerd Sep 17, 1975 vanaf Plesetsk Cosmodrome

Loading…

Volgende Passages (komende 24 uur)

TLE

VersSource: Space-Track

Epoch: Sep 14, 2026, 13:46 UTC

1  8287U 75086C   26257.57403161 -.00000009  00000-0  50303-4 0  9995
2  8287  74.0069 112.2218 0023111 326.2015  61.6661 12.43564790314877

Volg COSMOS 763 in realtime met AllMySat

Download on the App Store